"Pseudo-MPEC" for P10Swlh

Created 2019 Oct 10 14:07:30 UT using Find_Orb

Click here for an explanation of pseudo-MPECs

 
 Astrometry: 
     P10Swlh  C2019 10 07pM'n/n8K2iK1n=noq8#q7,H(Q.4fY*naSW/E)A4.-(dJQYJHqMs.F51
     P10Swlh  C2019 10 074Ake*%+=dS$=ehbH/QV3@fdyjfpr`Y,[JKe)0)mdadOO'Q9X-UkMF51
     P10Swlh  C2019 10 07v0@vv8\/xr3I]=Z@dx\)'10XJBeZgl0wrPNHid2g\EktK:'#Pd*bF51
     P10Swlh KC2019 10 08tbfp']s05EacmP'%qd%b^AgRjAstrometry)ftE:6e0=fHjv]5]]H21
     P10Swlh KC2019 10 08g'9Eu!]=i6s3s:.r.x]sIA`FXP]XgK9)d_Y?BPb2Iv_=^WL\;ER@H21
     P10Swlh KC2019 10 089dxi0V'#9kbLd_MKLI1C-BoC7nvV45t2Xvvh#[Hb.redacted;g!H21
     P10Swlh ^C2019 10 08.38493 00 24 00.027+19 10 52.30   ~A907 22.23GVNEOCP568
     P10Swlh ^C2019 10 08.39291 00 23 59.160+19 10 49.62   ~A907 22.26GVNEOCP568
     P10Swlh  C2019 10 080:M6=8Z$4clickOGLDhereC\X2VEj-A2dAng^T92H@I?X]CGfDsdF51
     P10Swlh  C2019 10 08h/weBEL=Wk9%Xw'f6nh1q-CTPj@t=+L(ql$pA'/Z-A14-(O3S\V-F51
     P10Swlh  C2019 10 08fG(;gWkI(]'xUH?]3`H!H$^w77ZHyI';gHM2qUox.%hD7U^:V,n^F51
     P10Swlh  C2019 10 080,r2_r[fhh;59p^kXcEFa7!FQ2,IjYfkK5k#)YrLhV=!tcG[#[+iF51
     P10Swlh ^C2019 10 09hToXh6uYad:SACf9o9'K0(yM*5MapXP^gEqU[F4w0(*Q%Jjt=KN.695
     P10Swlh ^C2019 10 09y!l4)S+;)C((:]`L;JTy!ZIE.gq.oYbJforKPS$5oaYwis5a4aV^695
     P10Swlh ^C2019 10 09oU:)%_8F0oib?n9sLNB3asW5brIIO-s*GcancqoX;1R/JK6SGInt695
     P10Swlh ^C2019 10 10Z)]SR`(:Yf;6*^mtSieXRi]hv*lk$Lt;Y';explanationA5\\Kf695
     P10Swlh ^C2019 10 10903g=9V\q.Tw8CGqIB2)#4xD$ZZ)s94:1MpGyYM-0*FSQ=M)_Pr^695

Station data:
(568) Mauna Kea  (N19.826116 W155.472200)  US/Hawaii.
(695) Kitt Peak  (N31.958398 W111.594670)  US/Arizona.
(F51) Pan-STARRS 1, Haleakala  (N20.707235 W156.255910)  US/Hawaii.
   Observers N. Primak, A. Schultz, S. Watters, J. Thiel, T. Goggia. Measurer
   PS1 Science Consortium. 1.8-m Ritchey-Chrétien + CCD.
(H21) Astronomical Research Observatory, Westfield  (N39.483057 W87.968270)
   US/Illinois. 0.76-m f/3.0 astrograph + CCD.

Orbital elements:  P10Swlh
   Perihelion 2020 Mar 26.750520 +/- 1.58 TT = 18:00:44 (JD 2458935.250520)
Epoch 2019 Oct 10.0 TT = JDT 2458766.5   Earth MOID: 0.1493   AutoNEOCP
M 275.12788613 +/- 0.8              (J2000 ecliptic)
n   0.50294430 +/- 0.0033           Peri.  185.55551 +/- 0.24
a   1.56599167 +/- 0.00685          Node   305.09535 +/- 0.47
e   0.2758783 +/- 0.00598           Incl.    6.49325 +/- 0.07
P   1.96/715.77d           H 21.5   G  0.15   U  8.9  
q 1.13396844 +/- 0.00443    Q 1.99801491 +/- 0.018
From 17 observations 2019 Oct. 7-10; mean residual 0".16
Residuals in arcseconds: 
191007 F51  .10+  .09-    191008 568  .05+  .14-    191009 695  .24-  .15+    
191007 F51  .05+  .21-    191008 568  .02-  .15-    191009 695  .07-  .16+    
191007 F51  .08-  .17-    191008 F51  .10-  .17-    191009 695  .10+  .19+    
191008 H21  .17-  .19+    191008 F51  .30+  .04-    191010 695  .18+  .07-    
191008 H21  .04-  .16+    191008 F51  .18-  .17-    191010 695  .09-  .20-    
191008 H21  .07+  .45+    191008 F51  .19+  .03-    

Ephemerides (geocentric):
Date (UTC) HH   RA              Dec         delta   r     elong  mag " sig PA
---- -- -- --  -------------   -----------  ------ ------ -----  --- ---- ---
2019 10 10 14  00 20 14.448   +18 57 39.21  .65880 1.6421 164.0 22.3 .236 105
2019 10 10 15  00 20 10.181   +18 57 23.16  .65870 1.6419 164.0 22.3 .248 107
2019 10 10 16  00 20 05.916   +18 57 07.07  .65859 1.6418 164.0 22.3 .260 108
2019 10 10 17  00 20 01.650   +18 56 50.95  .65849 1.6416 164.0 22.3 .272 110
2019 10 10 18  00 19 57.386   +18 56 34.78  .65839 1.6415 164.0 22.3 .285 111
2019 10 10 19  00 19 53.121   +18 56 18.58  .65829 1.6413 163.9 22.3 .298 112
2019 10 10 20  00 19 48.858   +18 56 02.35  .65819 1.6412 163.9 22.3 .312 113
2019 10 10 21  00 19 44.595   +18 55 46.08  .65809 1.6410 163.9 22.3 .326 114
2019 10 10 22  00 19 40.332   +18 55 29.77  .65799 1.6409 163.9 22.3 .340 116
2019 10 10 23  00 19 36.071   +18 55 13.42  .65789 1.6407 163.9 22.3 .356 116
2019 10 11 00  00 19 31.809   +18 54 57.04  .65779 1.6406 163.8 22.3 .371 117
2019 10 11 01  00 19 27.549   +18 54 40.63  .65770 1.6404 163.8 22.3 .387 118
2019 10 11 02  00 19 23.289   +18 54 24.17  .65760 1.6403 163.8 22.3 .403 119
2019 10 11 03  00 19 19.029   +18 54 07.68  .65750 1.6401 163.8 22.3 .420 120
2019 10 11 04  00 19 14.771   +18 53 51.16  .65740 1.6400 163.8 22.3 .437 120
2019 10 11 05  00 19 10.513   +18 53 34.59  .65731 1.6398 163.7 22.3 .454 121
2019 10 11 06  00 19 06.256   +18 53 18.00  .65721 1.6397 163.7 22.3 .472 122
2019 10 11 07  00 19 01.999   +18 53 01.36  .65711 1.6395 163.7 22.3 .491 122
2019 10 11 08  00 18 57.743   +18 52 44.69  .65702 1.6394 163.7 22.3 .509 123
2019 10 11 09  00 18 53.488   +18 52 27.99  .65692 1.6392 163.7 22.3 .528 123
2019 10 11 10  00 18 49.234   +18 52 11.24  .65683 1.6391 163.6 22.3 .548 124
2019 10 11 11  00 18 44.980   +18 51 54.47  .65673 1.6389 163.6 22.3 .568 124
2019 10 11 12  00 18 40.727   +18 51 37.65  .65664 1.6388 163.6 22.3 .588 125
2019 10 11 13  00 18 36.475   +18 51 20.81  .65655 1.6386 163.6 22.3 .609 125
2019 10 11 14  00 18 32.224   +18 51 03.92  .65645 1.6385 163.5 22.3 .630 126
2019 10 11 15  00 18 27.974   +18 50 47.00  .65636 1.6383 163.5 22.3 .651 126
2019 10 11 16  00 18 23.724   +18 50 30.05  .65627 1.6382 163.5 22.3 .673 126
2019 10 11 17  00 18 19.475   +18 50 13.06  .65617 1.6380 163.5 22.3 .695 127
2019 10 11 18  00 18 15.227   +18 49 56.03  .65608 1.6379 163.4 22.3 .718 127
2019 10 11 19  00 18 10.980   +18 49 38.97  .65599 1.6377 163.4 22.3 .741 127
2019 10 11 20  00 18 06.734   +18 49 21.87  .65590 1.6376 163.4 22.3 .764 127
2019 10 11 21  00 18 02.489   +18 49 04.74  .65581 1.6374 163.4 22.3 .788 128
2019 10 11 22  00 17 58.245   +18 48 47.57  .65572 1.6373 163.4 22.3 .812 128
2019 10 11 23  00 17 54.001   +18 48 30.37  .65563 1.6371 163.3 22.3 .836 128
2019 10 12 00  00 17 49.759   +18 48 13.13  .65554 1.6370 163.3 22.3 .861 128
2019 10 12 01  00 17 45.517   +18 47 55.86  .65545 1.6368 163.3 22.3 .886 129
2019 10 12 02  00 17 41.276   +18 47 38.56  .65536 1.6367 163.3 22.3 .912 129
2019 10 12 03  00 17 37.037   +18 47 21.22  .65527 1.6365 163.2 22.3 .938 129
2019 10 12 04  00 17 32.798   +18 47 03.84  .65518 1.6364 163.2 22.3 .964 129
2019 10 12 05  00 17 28.561   +18 46 46.43  .65509 1.6362 163.2 22.3 0.99 129
2019 10 12 06  00 17 24.324   +18 46 28.98  .65501 1.6361 163.2 22.3 1.02 130
2019 10 12 07  00 17 20.088   +18 46 11.50  .65492 1.6360 163.1 22.3 1.05 130
2019 10 12 08  00 17 15.854   +18 45 53.99  .65483 1.6358 163.1 22.3 1.07 130
2019 10 12 09  00 17 11.620   +18 45 36.44  .65475 1.6357 163.1 22.3 1.10 130
2019 10 12 10  00 17 07.388   +18 45 18.86  .65466 1.6355 163.1 22.3 1.13 130
2019 10 12 11  00 17 03.156   +18 45 01.24  .65457 1.6354 163.0 22.3 1.16 130
2019 10 12 12  00 16 58.926   +18 44 43.59  .65449 1.6352 163.0 22.3 1.19 130
2019 10 12 13  00 16 54.697   +18 44 25.90  .65440 1.6351 163.0 22.3 1.22 130